KE5CJ Weather Reports


time (UTC)temp
F
wind
direction
speed
knots
gust
knots
rain 1hr
in
rain 24hr
in
rain mn
in
humidity
%
barometer
mb
20260507103008 42 190 2.6 5.2 0.00 0.20 0.16 92 1027.9
20260507101507 42 190 3.5 5.2 0.00 0.20 0.16 92 1028.1
20260507100006 42 190 1.7 4.3 0.00 0.20 0.16 92 1028.1
20260507094504 42 190 1.7 3.5 0.00 0.20 0.16 92 1028.1
20260507093004 42 190 1.7 3.5 0.00 0.20 0.16 92 1028.1
20260507091601 42 190 0.9 2.6 0.00 0.20 0.16 92 1027.9
20260507084558 42 190 0.0 5.2 0.00 0.20 0.16 92 1027.7
20260507083053 43 190 1.7 3.5 0.00 0.20 0.16 93 1028.1
20260507081552 43 190 0.9 3.5 0.00 0.20 0.16 93 1027.9
20260507080050 43 190 0.0 2.6 0.01 0.20 0.16 93 1028.0
20260507074551 43 190 0.0 1.7 0.03 0.20 0.16 93 1028.2
20260507073054 43 190 0.0 0.0 0.08 0.20 0.16 92 1028.4
20260507071547 43 190 0.0 0.0 0.12 0.20 0.16 92 1028.6
20260507070054 43 190 0.0 0.0 0.12 0.24 0.15 92 1028.5
20260507064551 43 190 0.0 0.0 0.12 0.22 0.13 92 1029.1
20260507063043 43 190 0.0 0.0 0.08 0.17 0.08 92 1029.3
20260507061542 43 190 0.9 3.5 0.04 0.13 0.04 91 1028.9
20260507060050 43 190 0.0 3.5 0.04 0.12 0.03 91 1028.9
20260507054539 43 190 0.0 3.5 0.03 0.10 0.01 90 1029.2
20260507053036 43 190 0.0 3.5 0.02 0.09 0.00 90 1028.6
20260507051532 43 190 0.0 2.6 0.03 0.09 0.00 89 1028.3
20260507050032 43 190 0.0 4.3 0.03 0.08 0.08 89 1028.8
20260507044529 43 190 0.0 3.5 0.02 0.07 0.07 88 1029.1
20260507043028 44 190 0.0 1.7 0.02 0.07 0.07 86 1029.1
20260507041527 44 190 0.9 4.3 0.01 0.06 0.06 84 1028.0
20260507040026 44 190 2.6 6.1 0.00 0.05 0.05 81 1028.4
20260507034524 45 190 1.7 8.7 0.00 0.05 0.05 80 1027.6
20260507033030 46 190 3.5 8.7 0.00 0.05 0.05 75 1028.3
20260507031529 47 190 7.0 13.9 0.00 0.05 0.05 68 1028.1
20260507030019 49 190 6.1 11.3 0.00 0.05 0.05 64 1027.4
20260507024520 50 190 5.2 14.8 0.00 0.05 0.05 60 1027.1
20260507023015 50 190 7.8 13.9 0.00 0.05 0.05 59 1026.8
20260507021516 50 190 7.0 13.9 0.00 0.05 0.05 59 1026.5
20260507020012 51 190 6.1 13.0 0.00 0.05 0.05 58 1026.0
20260507014509 52 190 7.0 12.2 0.00 0.05 0.05 57 1025.5
20260507013004 53 190 6.1 11.3 0.00 0.05 0.05 55 1024.9
20260507011511 53 190 3.5 8.7 0.00 0.05 0.05 55 1024.5
20260507010004 53 190 2.6 7.8 0.00 0.05 0.05 54 1024.0
20260507004502 54 190 2.6 7.0 0.00 0.05 0.05 53 1023.4
20260507003002 55 190 3.5 8.7 0.00 0.05 0.05 52 1023.2
20260507001610 55 190 0.9 7.0 0.00 0.05 0.05 51 1023.0
20260507000058 57 190 2.6 7.0 0.00 0.05 0.05 50 1022.7
20260506234605 57 190 1.7 5.2 0.00 0.05 0.05 49 1022.7
20260506233058 57 190 3.5 9.6 0.00 0.05 0.05 49 1022.4
20260506231556 57 190 3.5 8.7 0.00 0.05 0.05 49 1022.1
20260506230056 56 190 3.5 8.7 0.00 0.05 0.05 51 1022.2
20260506224550 57 190 3.5 7.8 0.00 0.05 0.05 50 1022.2
20260506223049 56 190 1.7 7.0 0.00 0.05 0.05 52 1022.3
20260506221548 56 190 0.9 7.0 0.00 0.05 0.05 53 1022.5
20260506220052 56 190 3.5 6.1 0.00 0.05 0.05 52 1022.7
20260506214548 56 190 1.7 6.1 0.00 0.05 0.05 54 1022.9
20260506213047 56 190 0.9 5.2 0.00 0.05 0.05 54 1022.9
20260506211549 56 190 2.6 6.1 0.00 0.05 0.05 53 1023.0
20260506210048 55 190 0.9 6.1 0.00 0.05 0.05 56 1023.0
20260506204544 56 190 4.3 8.7 0.00 0.05 0.05 54 1023.1
20260506203043 55 190 2.6 6.1 0.00 0.05 0.05 56 1023.1
20260506201542 57 190 2.6 5.2 0.00 0.05 0.05 54 1023.3
20260506200040 54 190 1.7 4.3 0.00 0.05 0.05 60 1023.5
20260506194537 54 190 1.7 7.8 0.00 0.05 0.05 60 1023.6
20260506193034 53 190 0.0 4.3 0.00 0.05 0.05 61 1023.6
20260506191534 53 190 1.7 6.1 0.00 0.05 0.05 61 1023.7
20260506190037 51 190 2.6 7.0 0.00 0.05 0.05 65 1023.6
20260506184533 50 190 1.7 6.1 0.00 0.05 0.05 70 1024.0
20260506183023 49 190 1.7 5.2 0.00 0.05 0.05 73 1024.2
20260506181521 47 190 2.6 5.2 0.00 0.05 0.05 78 1024.5
20260506180026 46 190 1.7 5.2 0.00 0.05 0.05 81 1024.8
20260506174521 44 190 2.6 5.2 0.00 0.05 0.05 84 1024.9
20260506173022 43 190 2.6 7.8 0.00 0.05 0.05 85 1025.1
20260506171519 44 190 2.6 5.2 0.00 0.05 0.05 84 1025.1
20260506170015 44 190 1.7 6.1 0.00 0.05 0.05 84 1025.0
20260506164512 44 190 3.5 7.0 0.00 0.05 0.05 83 1024.6
20260506163011 44 190 1.7 5.2 0.00 0.05 0.05 82 1024.3
20260506161508 45 190 2.6 5.2 0.00 0.05 0.05 81 1024.0
20260506160006 44 190 1.7 6.1 0.00 0.05 0.05 81 1023.9
20260506154505 44 190 1.7 7.8 0.00 0.05 0.05 82 1023.6
20260506153003 44 190 1.7 5.2 0.00 0.05 0.05 81 1023.6
20260506151603 44 190 1.7 6.1 0.00 0.05 0.05 80 1023.4
20260506150059 44 190 0.0 7.0 0.00 0.05 0.05 79 1023.1
20260506144556 45 190 1.7 4.3 0.00 0.05 0.05 77 1023.0
20260506143056 45 190 1.7 3.5 0.00 0.05 0.05 72 1022.8
20260506141555 45 190 1.7 5.2 0.00 0.05 0.05 72 1022.7
20260506140054 45 190 0.9 6.1 0.00 0.05 0.05 73 1022.6
20260506134552 45 190 2.6 6.1 0.00 0.05 0.05 74 1021.9
20260506133051 44 190 2.6 5.2 0.00 0.05 0.05 74 1022.5
20260506131557 44 190 3.5 6.1 0.00 0.05 0.05 76 1022.0
20260506130103 44 190 2.6 6.1 0.00 0.05 0.05 76 1021.9
20260506124557 44 190 1.7 4.3 0.00 0.05 0.05 76 1022.0
20260506123049 44 190 2.6 4.3 0.00 0.05 0.05 76 1022.4
20260506121548 44 190 0.0 4.3 0.00 0.05 0.05 75 1022.6
20260506120046 44 190 0.9 4.3 0.00 0.05 0.05 75 1021.8
20260506114544 44 190 1.7 4.3 0.00 0.05 0.05 75 1021.9
20260506113051 44 190 0.9 3.5 0.00 0.05 0.05 75 1021.4
20260506111543 44 190 0.9 5.2 0.00 0.05 0.05 75 1021.2
20260506110051 43 190 0.9 4.3 0.00 0.05 0.05 76 1020.9
20260506104548 43 190 1.7 4.3 0.00 0.05 0.05 76 1020.5